VOE4MU LEAS-GCTS

Flight info

Callsign VOE4MU
Flight time 2h 56m
Altitude 23000
Route KUVAN N872 RALUS UN872 BEXAL/N0446F370 UN866 KONBA
Aircraft A320/M-SDE3FGHIRWY/LB1

Departure

Time 2026-04-20 13:46
Airport Asturias Airport (LEAS)

Arrival

Time 2026-04-20 16:43
Airport Tenerife Sur Airport (GCTS)
Time Latitude Longitude Altitude Speed Heading
2026-04-20 13:11 43.55996 -6.03173 426 ft 0 kts 271°
2026-04-20 13:40 43.55997 -6.03177 426 ft 0 kts 292°
2026-04-20 13:40 43.56003 -6.03177 426 ft 2 kts 343°
2026-04-20 13:40 43.56027 -6.03182 426 ft 4 kts 349°
2026-04-20 13:40 43.56060 -6.03217 419 ft 9 kts 321°
2026-04-20 13:41 43.56119 -6.03186 425 ft 13 kts 77°
2026-04-20 13:41 43.56092 -6.03046 418 ft 18 kts 109°
2026-04-20 13:41 43.56052 -6.02880 424 ft 19 kts 107°
2026-04-20 13:41 43.56013 -6.02711 418 ft 17 kts 108°
2026-04-20 13:42 43.55978 -6.02560 415 ft 16 kts 108°
2026-04-20 13:42 43.55961 -6.02323 424 ft 7 kts 64°
2026-04-20 13:42 43.55969 -6.02300 417 ft 0 kts 64°
2026-04-20 13:44 43.55984 -6.02257 417 ft 10 kts 64°
2026-04-20 13:44 43.56036 -6.02194 423 ft 7 kts 19°
2026-04-20 13:45 43.56066 -6.02233 422 ft 0 kts 287°
2026-04-20 13:45 43.56068 -6.02239 421 ft 0 kts 287°
2026-04-20 13:45 43.56090 -6.02335 419 ft 42 kts 288°
2026-04-20 13:45 43.56260 -6.03046 418 ft 110 kts 288°
2026-04-20 13:46 43.56562 -6.04285 518 ft 154 kts 290°
2026-04-20 13:46 43.56898 -6.05662 1232 ft 153 kts 290°
2026-04-20 13:46 43.57250 -6.07110 1725 ft 169 kts 291°
2026-04-20 13:46 43.57651 -6.08773 1999 ft 193 kts 291°
2026-04-20 13:47 43.58098 -6.10638 2275 ft 215 kts 290°
2026-04-20 13:47 43.58592 -6.12681 2619 ft 236 kts 290°
2026-04-20 13:47 43.59109 -6.14851 3380 ft 240 kts 288°
2026-04-20 13:47 43.59264 -6.17132 4153 ft 242 kts 255°
2026-04-20 13:48 43.58419 -6.19065 5048 ft 238 kts 217°
2026-04-20 13:48 43.56955 -6.20082 5925 ft 236 kts 198°
2026-04-20 13:48 43.55372 -6.20646 6806 ft 235 kts 193°
2026-04-20 13:48 43.53752 -6.21094 7585 ft 237 kts 193°
2026-04-20 13:49 43.52132 -6.21589 8354 ft 240 kts 195°
2026-04-20 13:49 43.50508 -6.22164 9134 ft 242 kts 197°
2026-04-20 13:49 43.48880 -6.22797 9907 ft 245 kts 198°
2026-04-20 13:49 43.47238 -6.23469 10628 ft 247 kts 197°
2026-04-20 13:50 43.45504 -6.23900 11093 ft 264 kts 191°
2026-04-20 13:50 43.43607 -6.24321 11327 ft 288 kts 191°
2026-04-20 13:50 43.41548 -6.24783 11531 ft 311 kts 191°
2026-04-20 13:50 43.39381 -6.25278 11939 ft 325 kts 191°
2026-04-20 13:51 43.37126 -6.25792 12592 ft 331 kts 191°
2026-04-20 13:51 43.34840 -6.26308 13295 ft 335 kts 191°
2026-04-20 13:51 43.32525 -6.26829 13970 ft 339 kts 192°
2026-04-20 13:51 43.30187 -6.27360 14618 ft 342 kts 191°
2026-04-20 13:52 43.27831 -6.27895 15242 ft 345 kts 192°
2026-04-20 13:52 43.25451 -6.28438 15877 ft 348 kts 191°
2026-04-20 13:52 43.23057 -6.28986 16547 ft 350 kts 191°
2026-04-20 13:52 43.20641 -6.29542 17174 ft 353 kts 191°
2026-04-20 13:53 43.18210 -6.30099 17800 ft 356 kts 191°
2026-04-20 13:53 43.15756 -6.30656 18388 ft 359 kts 191°
2026-04-20 13:53 43.13284 -6.31219 18908 ft 362 kts 191°
2026-04-20 13:53 43.10836 -6.32066 19413 ft 363 kts 201°
2026-04-20 13:54 43.08535 -6.33507 19921 ft 365 kts 208°
2026-04-20 13:54 43.06263 -6.35122 20422 ft 368 kts 208°
2026-04-20 13:54 43.03981 -6.36740 20914 ft 371 kts 208°
2026-04-20 13:54 43.01685 -6.38364 21431 ft 373 kts 208°
2026-04-20 13:55 42.99366 -6.39998 21919 ft 376 kts 208°
2026-04-20 13:55 42.97029 -6.41643 22393 ft 379 kts 208°
2026-04-20 13:55 42.94675 -6.43299 22863 ft 382 kts 208°
2026-04-20 13:55 42.92305 -6.44966 23339 ft 384 kts 208°
2026-04-20 13:56 42.89921 -6.46650 23759 ft 388 kts 208°
2026-04-20 13:56 42.87520 -6.48343 24170 ft 389 kts 208°
2026-04-20 13:56 42.85107 -6.50042 24594 ft 391 kts 208°
2026-04-20 13:56 42.82681 -6.51744 25006 ft 393 kts 208°
2026-04-20 13:57 42.80246 -6.53449 25411 ft 394 kts 208°
2026-04-20 13:57 42.77802 -6.55153 25813 ft 395 kts 208°
2026-04-20 13:57 42.75349 -6.56851 26203 ft 397 kts 208°
2026-04-20 13:57 42.72881 -6.58551 26594 ft 398 kts 208°
2026-04-20 13:58 42.70399 -6.60252 26983 ft 400 kts 208°
2026-04-20 13:58 42.67903 -6.61958 27356 ft 402 kts 208°
2026-04-20 13:58 42.65398 -6.63668 27733 ft 404 kts 208°
2026-04-20 13:58 42.62884 -6.65384 28097 ft 405 kts 208°
2026-04-20 13:59 42.60361 -6.67110 28466 ft 407 kts 208°
2026-04-20 13:59 42.57825 -6.68844 28836 ft 408 kts 208°
2026-04-20 13:59 42.55276 -6.70582 29189 ft 410 kts 208°
2026-04-20 13:59 42.52716 -6.72326 29539 ft 412 kts 209°
2026-04-20 14:00 42.50152 -6.74072 29861 ft 414 kts 209°
2026-04-20 14:00 42.47572 -6.75826 30172 ft 415 kts 209°
2026-04-20 14:00 42.45020 -6.77561 30443 ft 417 kts 209°
2026-04-20 14:00 42.42426 -6.79325 30710 ft 418 kts 209°
2026-04-20 14:01 42.39823 -6.81097 30955 ft 420 kts 208°
2026-04-20 14:01 42.37212 -6.82870 31291 ft 419 kts 208°
2026-04-20 14:01 42.34605 -6.84633 31675 ft 418 kts 208°
2026-04-20 14:01 42.32008 -6.86387 32040 ft 417 kts 208°
2026-04-20 14:02 42.29413 -6.88140 32409 ft 416 kts 208°
2026-04-20 14:02 42.26830 -6.89888 32787 ft 415 kts 208°
2026-04-20 14:02 42.24252 -6.91632 33162 ft 413 kts 208°
2026-04-20 14:02 42.21683 -6.93364 33537 ft 412 kts 208°
2026-04-20 14:03 42.19119 -6.95091 33905 ft 411 kts 208°
2026-04-20 14:03 42.16555 -6.96788 34236 ft 410 kts 208°
2026-04-20 14:03 42.13993 -6.98459 34547 ft 409 kts 208°
2026-04-20 14:03 42.11435 -7.00115 34807 ft 408 kts 208°
2026-04-20 14:04 42.08879 -7.01767 35056 ft 407 kts 208°
2026-04-20 14:04 42.06323 -7.03422 35299 ft 407 kts 208°
2026-04-20 14:04 42.03775 -7.05076 35568 ft 406 kts 208°
2026-04-20 14:04 42.01233 -7.06726 35819 ft 406 kts 208°
2026-04-20 14:05 41.98685 -7.08379 36053 ft 405 kts 208°
2026-04-20 14:05 41.96151 -7.10024 36295 ft 404 kts 208°
2026-04-20 14:05 41.93622 -7.11662 36552 ft 403 kts 208°
2026-04-20 14:05 41.91096 -7.13296 36782 ft 402 kts 208°
2026-04-20 14:06 41.88574 -7.14927 36915 ft 402 kts 208°
2026-04-20 14:06 41.86059 -7.16554 36940 ft 400 kts 208°
2026-04-20 14:06 41.81048 -7.19792 36937 ft 399 kts 208°
2026-04-20 14:07 41.76038 -7.23016 36931 ft 399 kts 208°
2026-04-20 14:07 41.71044 -7.26219 36923 ft 398 kts 208°
2026-04-20 14:08 41.66056 -7.29427 36925 ft 398 kts 208°
2026-04-20 14:08 41.61102 -7.32609 36921 ft 398 kts 208°
2026-04-20 14:09 41.56112 -7.35801 36919 ft 397 kts 208°
2026-04-20 14:09 41.51117 -7.38986 36902 ft 398 kts 208°
2026-04-20 14:10 41.46124 -7.42166 36902 ft 398 kts 208°
2026-04-20 14:10 41.41128 -7.45345 36905 ft 398 kts 208°
2026-04-20 14:11 41.36129 -7.48524 36904 ft 398 kts 208°
2026-04-20 14:11 41.31130 -7.51700 36898 ft 398 kts 208°
2026-04-20 14:12 41.26119 -7.54875 36900 ft 399 kts 208°
2026-04-20 14:12 41.21109 -7.58044 36900 ft 399 kts 208°
2026-04-20 14:13 41.16092 -7.61207 36918 ft 399 kts 207°
2026-04-20 14:13 41.11072 -7.64373 36917 ft 399 kts 208°
2026-04-20 14:14 41.06897 -7.67000 36915 ft 399 kts 207°
2026-04-20 14:14 41.01873 -7.70148 36917 ft 399 kts 207°
2026-04-20 14:15 40.96851 -7.73294 36920 ft 399 kts 207°
2026-04-20 14:15 40.91828 -7.76438 36923 ft 399 kts 207°
2026-04-20 14:16 40.86802 -7.79577 36916 ft 399 kts 207°
2026-04-20 14:16 40.81774 -7.82714 36918 ft 399 kts 207°
2026-04-20 14:17 40.76745 -7.85852 36925 ft 400 kts 207°
2026-04-20 14:17 40.71709 -7.88982 36926 ft 400 kts 207°
2026-04-20 14:18 40.66634 -7.91987 36924 ft 400 kts 206°
2026-04-20 14:18 40.61521 -7.94908 36918 ft 400 kts 205°
2026-04-20 14:19 40.56419 -7.97841 36924 ft 400 kts 206°
2026-04-20 14:19 40.51326 -8.00791 36927 ft 400 kts 206°
2026-04-20 14:20 40.46230 -8.03750 36925 ft 400 kts 206°
2026-04-20 14:20 40.41171 -8.06680 36927 ft 400 kts 206°
2026-04-20 14:21 40.36073 -8.09623 36929 ft 400 kts 206°
2026-04-20 14:21 40.30979 -8.12560 36927 ft 400 kts 206°
2026-04-20 14:22 40.25887 -8.15488 36933 ft 400 kts 206°
2026-04-20 14:22 40.20794 -8.18415 36931 ft 400 kts 206°
2026-04-20 14:23 40.15698 -8.21337 36931 ft 400 kts 206°
2026-04-20 14:23 40.10598 -8.24249 36932 ft 400 kts 205°
2026-04-20 14:24 40.05504 -8.27157 36926 ft 399 kts 205°
2026-04-20 14:24 40.00415 -8.30070 36932 ft 399 kts 206°
2026-04-20 14:25 39.95322 -8.32975 36921 ft 399 kts 205°
2026-04-20 14:25 39.90224 -8.35876 36933 ft 399 kts 205°
2026-04-20 14:26 39.85133 -8.38769 36929 ft 399 kts 205°
2026-04-20 14:26 39.80043 -8.41655 36924 ft 399 kts 205°
2026-04-20 14:27 39.74945 -8.44534 36926 ft 399 kts 205°
2026-04-20 14:27 39.69848 -8.47408 36911 ft 399 kts 205°
2026-04-20 14:28 39.64756 -8.50281 36914 ft 399 kts 205°
2026-04-20 14:28 39.59671 -8.53174 36915 ft 399 kts 205°
2026-04-20 14:29 39.54581 -8.56073 36917 ft 399 kts 205°
2026-04-20 14:29 39.49488 -8.58954 36915 ft 399 kts 205°
2026-04-20 14:30 39.44397 -8.61835 36899 ft 400 kts 205°
2026-04-20 14:30 39.39337 -8.64697 36908 ft 400 kts 205°
2026-04-20 14:31 39.34235 -8.67575 36909 ft 400 kts 205°
2026-04-20 14:31 39.29125 -8.70449 36912 ft 400 kts 205°
2026-04-20 14:32 39.24020 -8.73319 36915 ft 400 kts 205°
2026-04-20 14:32 39.18917 -8.76181 36915 ft 400 kts 205°
2026-04-20 14:33 39.13816 -8.79042 36918 ft 399 kts 205°
2026-04-20 14:33 39.08715 -8.81891 36918 ft 399 kts 205°
2026-04-20 14:34 39.03622 -8.84729 36917 ft 399 kts 205°
2026-04-20 14:34 38.98528 -8.87574 36909 ft 399 kts 205°
2026-04-20 14:35 38.93428 -8.90411 36909 ft 400 kts 205°
2026-04-20 14:35 38.88325 -8.93246 36910 ft 400 kts 205°
2026-04-20 14:36 38.83242 -8.96065 36910 ft 400 kts 205°
2026-04-20 14:36 38.78127 -8.98903 36913 ft 400 kts 205°
2026-04-20 14:37 38.73009 -9.01732 36904 ft 401 kts 205°
2026-04-20 14:37 38.67883 -9.04559 36906 ft 401 kts 205°
2026-04-20 14:38 38.62758 -9.07386 36915 ft 401 kts 205°
2026-04-20 14:38 38.57627 -9.10213 36930 ft 401 kts 205°
2026-04-20 14:39 38.52499 -9.13038 36924 ft 401 kts 205°
2026-04-20 14:39 38.47371 -9.15858 36923 ft 402 kts 205°
2026-04-20 14:40 38.42297 -9.18835 36921 ft 400 kts 212°
2026-04-20 14:40 38.37803 -9.23010 36921 ft 400 kts 218°
2026-04-20 14:41 38.33352 -9.27274 36920 ft 400 kts 217°
2026-04-20 14:41 38.28900 -9.31529 36926 ft 400 kts 217°
2026-04-20 14:42 38.24454 -9.35791 36925 ft 400 kts 218°
2026-04-20 14:42 38.20010 -9.40044 36928 ft 399 kts 218°
2026-04-20 14:43 38.15572 -9.44281 36934 ft 399 kts 218°
2026-04-20 14:43 38.11155 -9.48483 36946 ft 398 kts 217°
2026-04-20 14:44 38.06717 -9.52698 36945 ft 398 kts 217°
2026-04-20 14:44 38.02287 -9.56905 36938 ft 397 kts 217°
2026-04-20 14:45 37.97863 -9.61100 36932 ft 397 kts 217°
2026-04-20 14:45 37.93435 -9.65284 36930 ft 397 kts 217°
2026-04-20 14:46 37.89040 -9.69423 36932 ft 397 kts 217°
2026-04-20 14:46 37.84607 -9.73588 36928 ft 397 kts 217°
2026-04-20 14:47 37.80180 -9.77749 36928 ft 396 kts 217°
2026-04-20 14:48 37.73529 -9.83975 36926 ft 396 kts 217°
2026-04-20 14:48 37.69109 -9.88121 36928 ft 395 kts 217°
2026-04-20 14:49 37.64685 -9.92258 36927 ft 395 kts 217°
2026-04-20 14:49 37.60273 -9.96382 36926 ft 395 kts 217°
2026-04-20 14:50 37.55855 -10.00496 36912 ft 394 kts 217°
2026-04-20 14:50 37.51446 -10.04601 36899 ft 394 kts 217°
2026-04-20 14:51 37.47035 -10.08694 36898 ft 394 kts 217°
2026-04-20 14:51 37.42627 -10.12785 36899 ft 394 kts 217°
2026-04-20 14:52 37.38215 -10.16867 36895 ft 394 kts 217°
2026-04-20 14:52 37.33802 -10.20950 36910 ft 393 kts 216°
2026-04-20 14:53 37.29396 -10.25016 36907 ft 392 kts 216°
2026-04-20 14:53 37.24994 -10.29071 36882 ft 392 kts 216°
2026-04-20 14:54 37.21342 -10.32437 36885 ft 392 kts 216°
2026-04-20 14:54 37.16953 -10.36480 36884 ft 391 kts 216°
2026-04-20 14:55 37.12561 -10.40513 36879 ft 391 kts 216°
2026-04-20 14:55 37.08166 -10.44533 36874 ft 391 kts 216°
2026-04-20 14:56 37.03777 -10.48545 36866 ft 391 kts 216°
2026-04-20 14:56 36.99386 -10.52558 36851 ft 391 kts 216°
2026-04-20 14:57 36.94999 -10.56573 36849 ft 391 kts 216°
2026-04-20 14:57 36.90605 -10.60587 36862 ft 391 kts 216°
2026-04-20 14:58 36.86213 -10.64581 36863 ft 391 kts 216°
2026-04-20 14:58 36.81817 -10.68567 36864 ft 390 kts 216°
2026-04-20 14:59 36.77423 -10.72550 36858 ft 390 kts 216°
2026-04-20 14:59 36.73030 -10.76531 36848 ft 390 kts 216°
2026-04-20 15:00 36.68633 -10.80509 36845 ft 390 kts 216°
2026-04-20 15:00 36.64239 -10.84483 36848 ft 390 kts 216°
2026-04-20 15:01 36.59841 -10.88451 36847 ft 390 kts 216°
2026-04-20 15:01 36.55444 -10.92418 36846 ft 390 kts 216°
2026-04-20 15:02 36.51046 -10.96370 36862 ft 390 kts 216°
2026-04-20 15:02 36.46653 -11.00319 36858 ft 389 kts 216°
2026-04-20 15:03 36.42265 -11.04257 36856 ft 388 kts 216°
2026-04-20 15:03 36.37882 -11.08175 36855 ft 388 kts 216°
2026-04-20 15:04 36.33499 -11.12095 36854 ft 388 kts 216°
2026-04-20 15:04 36.29145 -11.15990 36849 ft 388 kts 216°
2026-04-20 15:05 36.24736 -11.19932 36845 ft 388 kts 216°
2026-04-20 15:05 36.20350 -11.23837 36832 ft 388 kts 216°
2026-04-20 15:06 36.15988 -11.27708 36841 ft 388 kts 216°
2026-04-20 15:06 36.11604 -11.31601 36853 ft 388 kts 216°
2026-04-20 15:07 36.07226 -11.35496 36861 ft 386 kts 215°
2026-04-20 15:07 36.02862 -11.39352 36858 ft 385 kts 215°
2026-04-20 15:08 35.98512 -11.43192 36852 ft 384 kts 215°
2026-04-20 15:08 35.94169 -11.47027 36830 ft 384 kts 216°
2026-04-20 15:09 35.89829 -11.50853 36833 ft 383 kts 216°
2026-04-20 15:09 35.85485 -11.54664 36832 ft 383 kts 215°
2026-04-20 15:10 35.81142 -11.58471 36833 ft 383 kts 215°
2026-04-20 15:10 35.76805 -11.62273 36822 ft 382 kts 215°
2026-04-20 15:11 35.72472 -11.66070 36821 ft 382 kts 215°
2026-04-20 15:11 35.68131 -11.69856 36822 ft 382 kts 215°
2026-04-20 15:12 35.63789 -11.73634 36815 ft 382 kts 215°
2026-04-20 15:12 35.59461 -11.77407 36804 ft 381 kts 215°
2026-04-20 15:13 35.55130 -11.81178 36804 ft 381 kts 215°
2026-04-20 15:13 35.50803 -11.84948 36802 ft 381 kts 215°
2026-04-20 15:14 35.46469 -11.88704 36800 ft 381 kts 215°
2026-04-20 15:14 35.42143 -11.92450 36789 ft 381 kts 215°
2026-04-20 15:15 35.37814 -11.96198 36788 ft 381 kts 215°
2026-04-20 15:15 35.33506 -11.99919 36790 ft 381 kts 215°
2026-04-20 15:16 35.29158 -12.03657 36798 ft 381 kts 215°
2026-04-20 15:16 35.24820 -12.07398 36798 ft 381 kts 215°
2026-04-20 15:17 35.20484 -12.11140 36798 ft 381 kts 214°
2026-04-20 15:17 35.16140 -12.14872 36797 ft 381 kts 214°
2026-04-20 15:18 35.11798 -12.18602 36778 ft 381 kts 215°
2026-04-20 15:18 35.07457 -12.22320 36773 ft 381 kts 214°
2026-04-20 15:19 35.03120 -12.26030 36773 ft 381 kts 215°
2026-04-20 15:19 34.98782 -12.29750 36778 ft 381 kts 215°
2026-04-20 15:20 34.94442 -12.33461 36772 ft 381 kts 215°
2026-04-20 15:20 34.90088 -12.37174 36772 ft 381 kts 214°
2026-04-20 15:21 34.85758 -12.40859 36778 ft 381 kts 214°
2026-04-20 15:21 34.81413 -12.44543 36776 ft 381 kts 214°
2026-04-20 15:22 34.77064 -12.48226 36771 ft 381 kts 214°
2026-04-20 15:22 34.72718 -12.51919 36771 ft 381 kts 214°
2026-04-20 15:23 34.68366 -12.55609 36774 ft 381 kts 214°
2026-04-20 15:23 34.64016 -12.59283 36772 ft 381 kts 214°
2026-04-20 15:24 34.59662 -12.62966 36764 ft 381 kts 214°
2026-04-20 15:24 34.55316 -12.66644 36751 ft 381 kts 214°
2026-04-20 15:25 34.50962 -12.70305 36758 ft 381 kts 214°
2026-04-20 15:25 34.46603 -12.73974 36757 ft 381 kts 214°
2026-04-20 15:26 34.42247 -12.77635 36774 ft 381 kts 214°
2026-04-20 15:26 34.37897 -12.81297 36765 ft 381 kts 214°
2026-04-20 15:27 34.33563 -12.84934 36767 ft 381 kts 214°
2026-04-20 15:27 34.29176 -12.88603 36748 ft 381 kts 214°
2026-04-20 15:28 34.24809 -12.92253 36748 ft 381 kts 214°
2026-04-20 15:28 34.20483 -12.95898 36750 ft 381 kts 214°
2026-04-20 15:29 34.16138 -12.99580 36754 ft 382 kts 214°
2026-04-20 15:29 34.11781 -13.03252 36756 ft 382 kts 214°
2026-04-20 15:30 34.07421 -13.06917 36752 ft 382 kts 214°
2026-04-20 15:30 34.03055 -13.10571 36757 ft 381 kts 214°
2026-04-20 15:31 33.98701 -13.14229 36771 ft 382 kts 214°
2026-04-20 15:31 33.94334 -13.17898 36759 ft 382 kts 214°
2026-04-20 15:32 33.90711 -13.20938 36753 ft 382 kts 214°
2026-04-20 15:32 33.86338 -13.24586 36750 ft 383 kts 214°
2026-04-20 15:33 33.81962 -13.28232 36749 ft 383 kts 214°
2026-04-20 15:33 33.77581 -13.31882 36755 ft 383 kts 214°
2026-04-20 15:34 33.73205 -13.35531 36737 ft 383 kts 215°
2026-04-20 15:34 33.68824 -13.39171 36744 ft 383 kts 215°
2026-04-20 15:35 33.64443 -13.42815 36748 ft 383 kts 215°
2026-04-20 15:35 33.60064 -13.46454 36751 ft 383 kts 215°
2026-04-20 15:36 33.55678 -13.50082 36776 ft 383 kts 214°
2026-04-20 15:36 33.51280 -13.53717 36765 ft 384 kts 214°
2026-04-20 15:37 33.46883 -13.57348 36766 ft 384 kts 214°
2026-04-20 15:37 33.42483 -13.60981 36749 ft 384 kts 215°
2026-04-20 15:38 33.38087 -13.64610 36753 ft 384 kts 215°
2026-04-20 15:38 33.33680 -13.68239 36760 ft 384 kts 215°
2026-04-20 15:39 33.29307 -13.71841 36764 ft 384 kts 215°
2026-04-20 15:39 33.24899 -13.75460 36766 ft 384 kts 215°
2026-04-20 15:40 33.20488 -13.79076 36767 ft 384 kts 215°
2026-04-20 15:40 33.16073 -13.82686 36754 ft 384 kts 215°
2026-04-20 15:41 33.11664 -13.86287 36781 ft 384 kts 215°
2026-04-20 15:41 33.07245 -13.89872 36777 ft 384 kts 215°
2026-04-20 15:42 33.02824 -13.93456 36772 ft 384 kts 215°
2026-04-20 15:42 32.98401 -13.97030 36775 ft 384 kts 215°
2026-04-20 15:43 32.93972 -14.00603 36778 ft 384 kts 215°
2026-04-20 15:43 32.89549 -14.04175 36776 ft 384 kts 215°
2026-04-20 15:44 32.85134 -14.07747 36761 ft 384 kts 215°
2026-04-20 15:44 32.80710 -14.11308 36763 ft 384 kts 215°
2026-04-20 15:45 32.76288 -14.14864 36765 ft 383 kts 215°
2026-04-20 15:45 32.71872 -14.18416 36765 ft 383 kts 215°
2026-04-20 15:46 32.67450 -14.21968 36778 ft 384 kts 215°
2026-04-20 15:46 32.63019 -14.25516 36772 ft 384 kts 215°
2026-04-20 15:47 32.58588 -14.29056 36766 ft 384 kts 215°
2026-04-20 15:47 32.54162 -14.32604 36767 ft 384 kts 215°
2026-04-20 15:48 32.49763 -14.36127 36760 ft 384 kts 215°
2026-04-20 15:48 32.45329 -14.39658 36760 ft 384 kts 215°
2026-04-20 15:49 32.40867 -14.43212 36760 ft 384 kts 215°
2026-04-20 15:49 32.36433 -14.46745 36766 ft 384 kts 215°
2026-04-20 15:50 32.32000 -14.50284 36760 ft 385 kts 215°
2026-04-20 15:50 32.27558 -14.53813 36752 ft 385 kts 215°
2026-04-20 15:51 32.23115 -14.57333 36767 ft 385 kts 215°
2026-04-20 15:51 32.18665 -14.60852 36775 ft 385 kts 215°
2026-04-20 15:52 32.14205 -14.64382 36775 ft 386 kts 215°
2026-04-20 15:52 32.09739 -14.67910 36769 ft 386 kts 215°
2026-04-20 15:53 32.03061 -14.73180 36776 ft 386 kts 215°
2026-04-20 15:53 31.98594 -14.76704 36764 ft 386 kts 215°
2026-04-20 15:54 31.94126 -14.80219 36768 ft 386 kts 215°
2026-04-20 15:54 31.89659 -14.83728 36771 ft 386 kts 215°
2026-04-20 15:55 31.85192 -14.87230 36772 ft 386 kts 215°
2026-04-20 15:55 31.80717 -14.90741 36775 ft 386 kts 215°
2026-04-20 15:56 31.76244 -14.94246 36791 ft 386 kts 215°
2026-04-20 15:56 31.71792 -14.97724 36747 ft 387 kts 215°
2026-04-20 15:57 31.67306 -15.01233 36755 ft 387 kts 215°
2026-04-20 15:57 31.62816 -15.04740 36762 ft 388 kts 215°
2026-04-20 15:58 31.58322 -15.08247 36774 ft 388 kts 215°
2026-04-20 15:58 31.53821 -15.11753 36779 ft 388 kts 215°
2026-04-20 15:59 31.49326 -15.15263 36794 ft 388 kts 215°
2026-04-20 15:59 31.44817 -15.18757 36797 ft 389 kts 215°
2026-04-20 16:00 31.40308 -15.22247 36781 ft 388 kts 216°
2026-04-20 16:00 31.35807 -15.25735 36793 ft 388 kts 216°
2026-04-20 16:01 31.31306 -15.29219 36798 ft 388 kts 216°
2026-04-20 16:01 31.26697 -15.32512 36798 ft 389 kts 211°
2026-04-20 16:02 31.21921 -15.35496 36800 ft 389 kts 210°
2026-04-20 16:02 31.17132 -15.38441 36803 ft 389 kts 211°
2026-04-20 16:03 31.12371 -15.41442 36784 ft 389 kts 211°
2026-04-20 16:03 31.07629 -15.44473 36793 ft 388 kts 211°
2026-04-20 16:04 31.02885 -15.47497 36800 ft 388 kts 212°
2026-04-20 16:04 30.98144 -15.50516 36805 ft 388 kts 211°
2026-04-20 16:05 30.93402 -15.53522 36807 ft 388 kts 211°
2026-04-20 16:05 30.88655 -15.56516 36812 ft 388 kts 211°
2026-04-20 16:06 30.83936 -15.59496 36777 ft 388 kts 212°
2026-04-20 16:06 30.79203 -15.62498 36792 ft 387 kts 212°
2026-04-20 16:07 30.74460 -15.65499 36811 ft 388 kts 212°
2026-04-20 16:07 30.69709 -15.68498 36797 ft 389 kts 212°
2026-04-20 16:08 30.64952 -15.71491 36805 ft 389 kts 212°
2026-04-20 16:08 30.60187 -15.74490 36806 ft 390 kts 212°
2026-04-20 16:09 30.55415 -15.77494 36807 ft 390 kts 212°
2026-04-20 16:09 30.50647 -15.80487 36799 ft 389 kts 212°
2026-04-20 16:10 30.45884 -15.83471 36806 ft 389 kts 212°
2026-04-20 16:10 30.41133 -15.86448 36822 ft 388 kts 212°
2026-04-20 16:11 30.37180 -15.88924 36827 ft 388 kts 212°
2026-04-20 16:11 30.32427 -15.91891 36827 ft 388 kts 212°
2026-04-20 16:12 30.27680 -15.94853 36807 ft 388 kts 212°
2026-04-20 16:12 30.22929 -15.97815 36809 ft 387 kts 213°
2026-04-20 16:13 30.18193 -16.00768 36824 ft 387 kts 213°
2026-04-20 16:13 30.13477 -16.03710 36818 ft 387 kts 213°
2026-04-20 16:14 30.08725 -16.06663 36819 ft 388 kts 213°
2026-04-20 16:14 30.03958 -16.09611 36823 ft 388 kts 213°
2026-04-20 16:15 29.99196 -16.12564 36821 ft 388 kts 213°
2026-04-20 16:15 29.94440 -16.15517 36800 ft 388 kts 213°
2026-04-20 16:16 29.89688 -16.18454 36820 ft 387 kts 213°
2026-04-20 16:16 29.84945 -16.21391 36832 ft 387 kts 213°
2026-04-20 16:17 29.80208 -16.24317 36840 ft 386 kts 213°
2026-04-20 16:17 29.75472 -16.27235 36838 ft 386 kts 213°
2026-04-20 16:18 29.70733 -16.30150 36836 ft 386 kts 213°
2026-04-20 16:18 29.66036 -16.33045 36834 ft 385 kts 213°
2026-04-20 16:19 29.61304 -16.35956 36851 ft 385 kts 214°
2026-04-20 16:19 29.56916 -16.39369 36844 ft 379 kts 224°
2026-04-20 16:20 29.52853 -16.43219 36838 ft 379 kts 224°
2026-04-20 16:20 29.48780 -16.47069 36836 ft 379 kts 224°
2026-04-20 16:21 29.44702 -16.50909 36838 ft 379 kts 224°
2026-04-20 16:21 29.40620 -16.54749 36838 ft 379 kts 224°
2026-04-20 16:22 29.36540 -16.58582 36838 ft 379 kts 224°
2026-04-20 16:22 29.32460 -16.62417 36819 ft 379 kts 224°
2026-04-20 16:23 29.28350 -16.66278 36491 ft 386 kts 224°
2026-04-20 16:23 29.26267 -16.68235 36230 ft 386 kts 224°
2026-04-20 16:23 29.24196 -16.70175 35986 ft 384 kts 224°
2026-04-20 16:24 29.22132 -16.72103 35691 ft 380 kts 224°
2026-04-20 16:24 29.20094 -16.74006 35266 ft 375 kts 224°
2026-04-20 16:24 29.18084 -16.75883 34814 ft 371 kts 224°
2026-04-20 16:24 29.16094 -16.77745 34366 ft 368 kts 224°
2026-04-20 16:25 29.14121 -16.79590 33911 ft 364 kts 224°
2026-04-20 16:25 29.12168 -16.81417 33432 ft 360 kts 224°
2026-04-20 16:25 29.10239 -16.83221 32992 ft 356 kts 224°
2026-04-20 16:25 29.08334 -16.85000 32566 ft 351 kts 224°
2026-04-20 16:26 29.06452 -16.86754 32124 ft 348 kts 223°
2026-04-20 16:26 29.04327 -16.88190 31201 ft 367 kts 206°
2026-04-20 16:26 29.01752 -16.88775 30206 ft 389 kts 193°
2026-04-20 16:26 28.99017 -16.89059 29145 ft 398 kts 192°
2026-04-20 16:27 28.96262 -16.89316 28360 ft 399 kts 191°
2026-04-20 16:27 28.93458 -16.89575 27119 ft 410 kts 191°
2026-04-20 16:27 28.90595 -16.89847 26178 ft 415 kts 190°
2026-04-20 16:27 28.87721 -16.90121 25457 ft 413 kts 190°
2026-04-20 16:28 28.84866 -16.90393 24804 ft 410 kts 189°
2026-04-20 16:28 28.82033 -16.90668 24170 ft 407 kts 189°
2026-04-20 16:28 28.79255 -16.90945 23550 ft 404 kts 189°
2026-04-20 16:28 28.76467 -16.91226 22859 ft 401 kts 189°
2026-04-20 16:29 28.73700 -16.91508 22188 ft 397 kts 189°
2026-04-20 16:29 28.70959 -16.91786 21576 ft 393 kts 189°
2026-04-20 16:29 28.68245 -16.92058 20970 ft 389 kts 189°
2026-04-20 16:29 28.65555 -16.92322 20376 ft 386 kts 189°
2026-04-20 16:30 28.62891 -16.92585 19800 ft 382 kts 189°
2026-04-20 16:30 28.60244 -16.92848 19252 ft 379 kts 189°
2026-04-20 16:30 28.57621 -16.93109 18701 ft 376 kts 189°
2026-04-20 16:30 28.55027 -16.93367 18174 ft 373 kts 189°
2026-04-20 16:31 28.52448 -16.93625 17588 ft 370 kts 189°
2026-04-20 16:31 28.49888 -16.93880 17011 ft 368 kts 189°
2026-04-20 16:31 28.47347 -16.94131 16454 ft 365 kts 188°
2026-04-20 16:31 28.44823 -16.94378 15896 ft 363 kts 188°
2026-04-20 16:32 28.42317 -16.94623 15378 ft 360 kts 188°
2026-04-20 16:32 28.39825 -16.94866 14869 ft 358 kts 188°
2026-04-20 16:32 28.37351 -16.95110 14374 ft 355 kts 188°
2026-04-20 16:32 28.34896 -16.95353 13881 ft 353 kts 188°
2026-04-20 16:33 28.32459 -16.95595 13372 ft 350 kts 188°
2026-04-20 16:33 28.30035 -16.95833 12822 ft 348 kts 188°
2026-04-20 16:33 28.27667 -16.96067 12284 ft 345 kts 188°
2026-04-20 16:33 28.25286 -16.96304 11739 ft 342 kts 188°
2026-04-20 16:34 28.22922 -16.96538 11192 ft 340 kts 188°
2026-04-20 16:34 28.20580 -16.96768 10661 ft 337 kts 188°
2026-04-20 16:34 28.18258 -16.96992 10298 ft 330 kts 187°
2026-04-20 16:34 28.16018 -16.96736 10163 ft 322 kts 167°
2026-04-20 16:35 28.13951 -16.95862 10054 ft 311 kts 163°
2026-04-20 16:35 28.11975 -16.94977 9937 ft 299 kts 163°
2026-04-20 16:35 28.10083 -16.94110 9701 ft 287 kts 163°
2026-04-20 16:35 28.08250 -16.93265 9074 ft 283 kts 162°
2026-04-20 16:36 28.06436 -16.92429 8398 ft 281 kts 161°
2026-04-20 16:36 28.04626 -16.91596 7714 ft 280 kts 161°
2026-04-20 16:36 28.02824 -16.90769 7042 ft 279 kts 160°
2026-04-20 16:36 28.01022 -16.89941 6378 ft 278 kts 160°
2026-04-20 16:37 27.99228 -16.89118 5681 ft 277 kts 160°
2026-04-20 16:37 27.97450 -16.88302 5172 ft 270 kts 160°
2026-04-20 16:37 27.95802 -16.87461 5009 ft 254 kts 147°
2026-04-20 16:37 27.94708 -16.85964 4775 ft 248 kts 109°
2026-04-20 16:38 27.94653 -16.84071 4483 ft 242 kts 70°
2026-04-20 16:38 27.95512 -16.82467 4117 ft 239 kts 52°
2026-04-20 16:38 27.96287 -16.80799 3756 ft 241 kts 68°
2026-04-20 16:38 27.96866 -16.79020 3426 ft 240 kts 68°
2026-04-20 16:39 27.97459 -16.77266 3116 ft 238 kts 66°
2026-04-20 16:39 27.98064 -16.75534 3004 ft 236 kts 66°
2026-04-20 16:39 27.98660 -16.73830 2912 ft 229 kts 66°
2026-04-20 16:39 27.99240 -16.72173 2655 ft 222 kts 66°
2026-04-20 16:40 27.99794 -16.70586 2369 ft 211 kts 66°
2026-04-20 16:40 28.00322 -16.69077 2129 ft 200 kts 67°
2026-04-20 16:40 28.00824 -16.67640 1848 ft 193 kts 68°
2026-04-20 16:40 28.01300 -16.66277 1603 ft 181 kts 67°
2026-04-20 16:41 28.01751 -16.64988 1357 ft 171 kts 68°
2026-04-20 16:41 28.02180 -16.63763 1123 ft 164 kts 68°
2026-04-20 16:41 28.02596 -16.62596 908 ft 155 kts 69°
2026-04-20 16:41 28.02974 -16.61485 710 ft 148 kts 70°
2026-04-20 16:42 28.03342 -16.60420 520 ft 143 kts 71°
2026-04-20 16:42 28.03704 -16.59389 332 ft 142 kts 71°
2026-04-20 16:42 28.04066 -16.58350 210 ft 139 kts 71°
2026-04-20 16:42 28.04372 -16.57467 195 ft 97 kts 68°
2026-04-20 16:43 28.04557 -16.56936 205 ft 48 kts 68°
2026-04-20 16:43 28.04650 -16.56669 202 ft 34 kts 66°
2026-04-20 16:43 28.04785 -16.56475 209 ft 30 kts 44°
2026-04-20 16:43 28.04891 -16.56363 223 ft 8 kts 34°
2026-04-20 16:44 28.04931 -16.56379 223 ft 6 kts 301°
2026-04-20 16:44 28.04928 -16.56424 219 ft 5 kts 251°
2026-04-20 16:44 28.04914 -16.56461 219 ft 5 kts 248°
2026-04-20 16:44 28.04897 -16.56511 219 ft 12 kts 248°
2026-04-20 16:45 28.04855 -16.56631 219 ft 18 kts 249°
2026-04-20 16:45 28.04811 -16.56760 219 ft 17 kts 248°
2026-04-20 16:45 28.04769 -16.56879 220 ft 15 kts 249°
2026-04-20 16:45 28.04733 -16.56982 223 ft 13 kts 249°
2026-04-20 16:46 28.04704 -16.57067 223 ft 10 kts 248°
2026-04-20 16:46 28.04662 -16.57169 223 ft 20 kts 244°
2026-04-20 16:46 28.04606 -16.57320 223 ft 21 kts 249°
2026-04-20 16:46 28.04549 -16.57483 223 ft 23 kts 248°
2026-04-20 16:47 28.04501 -16.57619 223 ft 13 kts 248°
2026-04-20 16:47 28.04522 -16.57680 223 ft 9 kts 337°
2026-04-20 16:47 28.04575 -16.57704 224 ft 7 kts 334°
2026-04-20 16:47 28.04593 -16.57738 224 ft 4 kts 278°
2026-04-20 16:48 28.04583 -16.57784 224 ft 6 kts 251°
2026-04-20 16:48 28.04592 -16.57817 225 ft 3 kts 327°
2026-04-20 16:48 28.04620 -16.57830 226 ft 5 kts 339°
2026-04-20 16:48 28.04645 -16.57840 226 ft 2 kts 339°
2026-04-20 16:49 28.04649 -16.57843 227 ft 0 kts 338°